Location: Goettingen
(51.5300°N, 9.9433°E)
Time: 13:47:47
(UTC+02:00)

Tiangong - Pass Details

Date: 29 September 2021
Orbit: 382 x 385 km, 41.5° (Epoch: 18 October)

Event Time Altitude Azimuth Distance (km) Brightness Sun altitude
Exits shadow 06:15:15 - 209° (SSW) 1,675 3.9 -10.5°
Reaches altitude 10° 06:16:33 10° 191° (S) 1,393 3.7 -10.3°
Maximum altitude 06:17:44 12° 169° (SSE) 1,299 3.8 -10.1°
Drops below altitude 10° 06:18:55 10° 146° (SSE) 1,394 4.2 -10.0°
Sets 06:22:03 0° 112° (ESE) 2,248 6.1 -9.5°
